Weather History for KCLS - December, 2013

Change the Weather History Date:

Wednesday, December 25, 2013

  Actual Average (KOLM) Record (KOLM)
Temperature  
Mean Temperature 37 °F 38 °F  
Max Temperature 42 °F 44 °F 61 °F (1980)
Min Temperature 32 °F 33 °F 17 °F (1962)
Degree Days  
Heating Degree Days 28 27  
Month to date heating degree days 664  
Since 1 July heating degree days 2109  
Cooling Degree Days 0 0  
Month to date cooling degree days 0  
Year to date cooling degree days 106  
Moisture  
Dew Point 35 °F    
Average Humidity 97    
Maximum Humidity 100    
Minimum Humidity 76    
Precipitation  
Precipitation 0.01 in 0.24 in 2.00 in (1980)
Month to date precipitation 6.09  
Year to date precipitation 48.63  
Sea Level Pressure  
Sea Level Pressure 30.47 in    
Wind  
Wind Speed 1 mph (South)    
Max Wind Speed 7 mph    
Max Gust Speed -    
Visibility 4 miles    
Events Fog    
T = Trace of Precipitation, MM = Missing Value Source: NWS Daily Summary

Daily Weather History Graph

Daily Weather History Graph

Search for Another Location

Airport or City:

Trip Planner

Search our weather history database for the weather conditions in past years. The results will help you decide how hot, cold, wet, or windy it might be!

Date:

Astronomy

Dec. 25, 2013 Rise Set
Actual Time 7:55 AM PST 4:29 PM PST
Civil Twilight 7:20 AM PST 5:04 PM PST
Nautical Twilight 6:41 AM PST 5:42 PM PST
Astronomical Twilight 6:04 AM PST 6:19 PM PST
Moon 12:08 AM PST (12/25) 11:54 AM PST (12/25)
Length of Visible Light 9h 44m
Length of Day
8h 33m
Waning Gibbous, 47% of the Moon is Illuminated
Dec 25
Waning Gibbous
Jan 1
New
Jan 7
First Quarter
Jan 15
Full
Jan 23
Last Quarter

Hourly Weather History & Observations

Time (PST) Temp. Windchill Dew Point Humidity Pressure Visibility Wind Dir Wind Speed Gust Speed Precip Events Conditions
12:15 AM 32.0 °F - 32.0 °F 100% 30.53 in 0.2 mi Calm Calm - N/A Fog Fog
12:35 AM 32.0 °F - 32.0 °F 100% 30.53 in 0.2 mi Calm Calm - N/A Fog Fog
12:55 AM 32.0 °F - 32.0 °F 100% 30.53 in 0.2 mi Calm Calm - N/A Fog Fog
1:15 AM 32.0 °F - 32.0 °F 100% 30.53 in 0.2 mi Calm Calm - N/A Fog Fog
1:35 AM 32.0 °F - 32.0 °F 100% 30.52 in 0.2 mi Calm Calm - N/A Fog Fog
1:55 AM 32.0 °F - 32.0 °F 100% 30.52 in 0.2 mi Calm Calm - N/A Fog Fog
2:15 AM 32.0 °F - 32.0 °F 100% 30.52 in 0.2 mi Calm Calm - N/A Fog Fog
2:35 AM 32.0 °F - 32.0 °F 100% 30.52 in 0.2 mi Calm Calm - N/A Fog Fog
2:55 AM 32.0 °F - 32.0 °F 100% 30.51 in 0.2 mi Calm Calm - N/A Fog Fog
3:15 AM 32.0 °F - 32.0 °F 100% 30.52 in 0.2 mi Calm Calm - N/A Fog Fog
3:35 AM 32.0 °F 28.7 °F 32.0 °F 100% 30.51 in 0.2 mi SSW 3.5 mph - N/A Fog Fog
3:55 AM 32.0 °F - 32.0 °F 100% 30.51 in 0.2 mi Calm Calm - 0.01 in Fog Fog
4:15 AM 32.0 °F - 32.0 °F 100% 30.51 in 0.2 mi Calm Calm - N/A Fog Fog
4:35 AM 32.0 °F 28.7 °F 32.0 °F 100% 30.51 in 0.2 mi SSW 3.5 mph - N/A Fog Fog
4:55 AM 33.8 °F 29.6 °F 33.8 °F 100% 30.51 in 0.2 mi SSW 4.6 mph - N/A Fog Fog
5:15 AM 33.8 °F 30.8 °F 33.8 °F 100% 30.51 in 0.2 mi SSW 3.5 mph - N/A Fog Fog
5:35 AM 33.8 °F 30.8 °F 33.8 °F 100% 30.51 in 0.2 mi South 3.5 mph - N/A Fog Fog
5:55 AM 33.8 °F 28.6 °F 33.8 °F 100% 30.49 in 0.2 mi SSE 5.8 mph - N/A Fog Fog
6:15 AM 35.6 °F 32.8 °F 35.6 °F 100% 30.49 in 0.2 mi South 3.5 mph - N/A Fog Fog
6:35 AM 35.6 °F - 35.6 °F 100% 30.49 in 0.2 mi Calm Calm - N/A Fog Fog
6:55 AM 35.6 °F - 35.6 °F 100% 30.49 in 0.2 mi Calm Calm - N/A Fog Fog
7:15 AM 33.8 °F - 33.8 °F 100% 30.48 in 0.2 mi Calm Calm - N/A Fog Fog
7:35 AM 35.6 °F - 35.6 °F 100% 30.47 in 0.2 mi Calm Calm - N/A Fog Fog
7:55 AM 35.6 °F - 35.6 °F 100% 30.49 in 0.2 mi Calm Calm - N/A Fog Fog
8:15 AM 35.6 °F - 35.6 °F 100% 30.48 in 0.2 mi Calm Calm - N/A Fog Fog
8:35 AM 35.6 °F - 35.6 °F 100% 30.49 in 0.2 mi Calm Calm - N/A Fog Fog
8:55 AM 35.6 °F - 35.6 °F 100% 30.48 in 0.2 mi Calm Calm - N/A Fog Fog
9:15 AM 35.6 °F - 35.6 °F 100% 30.49 in 3.0 mi Calm Calm - N/A   Overcast
9:35 AM 35.6 °F - 35.6 °F 100% 30.51 in 1.0 mi Calm Calm - N/A   Overcast
9:55 AM 35.6 °F 32.8 °F 35.6 °F 100% 30.49 in 5.0 mi SE 3.5 mph - N/A   Overcast
10:15 AM 35.6 °F - 35.6 °F 100% 30.50 in 2.5 mi Calm Calm - N/A   Overcast
10:35 AM 35.6 °F 31.7 °F 35.6 °F 100% 30.49 in 7.0 mi South 4.6 mph - N/A   Overcast
10:55 AM 35.6 °F 29.9 °F 35.6 °F 100% 30.48 in 4.0 mi South 6.9 mph - N/A   Overcast
11:15 AM 35.6 °F 31.7 °F 35.6 °F 100% 30.47 in 7.0 mi SSE 4.6 mph - N/A   Overcast
11:35 AM 37.4 °F 34.9 °F 37.4 °F 100% 30.46 in 10.0 mi South 3.5 mph - N/A   Overcast
11:55 AM 37.4 °F 34.9 °F 37.4 °F 100% 30.45 in 10.0 mi South 3.5 mph - N/A   Overcast
12:15 PM 39.2 °F 37.0 °F 37.4 °F 93% 30.45 in 10.0 mi South 3.5 mph - N/A   Mostly Cloudy
12:35 PM 41.0 °F 36.4 °F 35.6 °F 81% 30.44 in 10.0 mi SSE 6.9 mph - N/A   Scattered Clouds
12:55 PM 39.2 °F 34.2 °F 35.6 °F 87% 30.43 in 10.0 mi South 6.9 mph - N/A   Partly Cloudy
1:15 PM 41.0 °F 39.0 °F 35.6 °F 81% 30.43 in 10.0 mi SSW 3.5 mph - N/A   Clear
1:35 PM 41.0 °F - 35.6 °F 81% 30.43 in 10.0 mi Calm Calm - N/A   Clear
1:55 PM 41.0 °F - 35.6 °F 81% 30.43 in 10.0 mi Calm Calm - N/A   Clear
2:15 PM 41.0 °F - 35.6 °F 81% 30.43 in 10.0 mi Calm Calm - N/A   Clear
2:35 PM 41.0 °F - 35.6 °F 81% 30.43 in 10.0 mi Calm Calm - N/A   Clear
2:55 PM 42.8 °F - 35.6 °F 76% 30.44 in 10.0 mi Calm Calm - N/A   Mostly Cloudy
3:15 PM 42.8 °F - 35.6 °F 76% 30.43 in 10.0 mi Calm Calm - N/A   Overcast
3:35 PM 41.0 °F - 37.4 °F 87% 30.43 in 10.0 mi Calm Calm - N/A   Overcast
3:55 PM 39.2 °F - 37.4 °F 93% 30.43 in 10.0 mi Calm Calm - N/A   Partly Cloudy
4:15 PM 39.2 °F 37.0 °F 35.6 °F 87% 30.43 in 10.0 mi SW 3.5 mph - N/A   Clear
4:35 PM 37.4 °F - 35.6 °F 93% 30.43 in 10.0 mi Calm Calm - N/A   Clear
4:55 PM 37.4 °F - 35.6 °F 93% 30.44 in 10.0 mi Calm Calm - N/A   Clear
5:15 PM 35.6 °F - 35.6 °F 100% 30.44 in 10.0 mi Calm Calm - N/A   Clear
5:35 PM 33.8 °F - 33.8 °F 100% 30.43 in 10.0 mi Calm Calm - N/A   Scattered Clouds
5:55 PM 33.8 °F - 33.8 °F 100% 30.43 in 10.0 mi Calm Calm - N/A   Scattered Clouds
6:15 PM 33.8 °F - 33.8 °F 100% 30.43 in 8.0 mi Calm Calm - N/A   Overcast
6:35 PM 33.8 °F - 33.8 °F 100% 30.43 in 10.0 mi Calm Calm - N/A   Overcast
6:55 PM 33.8 °F - 33.8 °F 100% 30.44 in 10.0 mi Calm Calm - N/A   Overcast
7:15 PM 35.6 °F 32.8 °F 35.6 °F 100% 30.43 in 10.0 mi South 3.5 mph - N/A   Overcast
7:35 PM 35.6 °F - 35.6 °F 100% 30.43 in 10.0 mi Calm Calm - N/A   Overcast
7:55 PM 35.6 °F - 35.6 °F 100% 30.44 in 9.0 mi Calm Calm - N/A   Overcast
8:15 PM 35.6 °F - 35.6 °F 100% 30.45 in 5.0 mi Calm Calm - N/A   Overcast
8:35 PM 35.6 °F 32.8 °F 35.6 °F 100% 30.45 in 0.8 mi North 3.5 mph - N/A   Overcast
8:55 PM 35.6 °F - 35.6 °F 100% 30.44 in 0.5 mi Calm Calm - N/A Fog Fog
9:15 PM 35.6 °F - 35.6 °F 100% 30.43 in 0.2 mi Calm Calm - N/A Fog Fog
9:35 PM 35.6 °F - 35.6 °F 100% 30.44 in 0.2 mi Calm Calm - N/A Fog Fog
9:55 PM 35.6 °F - 35.6 °F 100% 30.43 in 0.2 mi Calm Calm - N/A Fog Fog
10:15 PM 35.6 °F - 35.6 °F 100% 30.43 in 0.2 mi Calm Calm - N/A Fog Fog
10:35 PM 35.6 °F - 35.6 °F 100% 30.44 in 0.2 mi Calm Calm - N/A Fog Fog
10:55 PM 35.6 °F - 35.6 °F 100% 30.43 in 0.2 mi Calm Calm - N/A Fog Fog
11:15 PM 35.6 °F - 35.6 °F 100% 30.43 in 0.2 mi Calm Calm - N/A Fog Fog
11:35 PM 35.6 °F 32.8 °F 35.6 °F 100% 30.42 in 0.2 mi ENE 3.5 mph - N/A Fog Fog
11:55 PM 35.6 °F - 35.6 °F 100% 30.42 in 0.2 mi Calm Calm - N/A Fog Fog